Location: Peebles
(55.6412°N, 3.1714°W)
Time: 12:09:52
(UTC+00:00)

CUTE-I - Pass Details

Date: 16 December 2023
Orbit: 807 x 823 km, 98.7° (Epoch: 24 February)

Event Time Altitude Azimuth Distance (km) Brightness Sun altitude
Rises 06:08:22 0° 19° (NNE) 3,371 ? -19.0°
Reaches altitude 10° 06:10:52 10° 26° (NNE) 2,435 ? -18.7°
Maximum altitude 06:15:59 42° 98° (E) 1,158 ? -18.0°
Drops below altitude 10° 06:21:04 10° 169° (SSE) 2,420 ? -17.3°
Sets 06:23:31 0° 176° (S) 3,348 ? -17.0°
